Theta_e
317 316 315 313 311 309 307 307 306 304 303 302 301 301 300 298 296 295 293 292 291 290 289 289 289 289 289 289 289 289 289 289 290 290 291 291 291 293 294 296 293 294 295
317 317 315 313 311 309 307 307 306 304 303 302 300 299 297 296 295 294 293 292 290 289 289 288 288 288 288 288 288 288 288 289 289 290 290 292 290 294 291 290 293 293 294
317 317 316 314 311 308 307 307 306 304 302 300 297 296 295 295 296 294 292 291 290 289 288 288 287 287 287 287 287 287 287 288 288 288 289 290 290 290 290 290 290 291 291
316 317 316 314 311 309 307 307 306 304 301 298 297 296 296 295 294 292 291 290 289 288 288 287 287 286 286 287 287 287 287 287 287 287 288 288 288 289 289 289 289 289 291
317 317 316 314 311 309 307 306 306 302 299 296 296 295 294 293 292 291 290 290 289 288 287 286 286 286 286 286 286 286 286 286 286 287 287 287 286 287 288 288 290 289 290
316 317 315 313 311 309 307 306 305 301 297 295 294 293 292 292 291 290 289 289 287 287 286 286 285 285 285 285 285 285 285 285 285 286 286 287 288 287 287 288 288 289 288
315 316 316 314 311 309 307 306 304 299 296 294 293 291 290 290 289 289 288 287 286 286 286 285 285 284 284 284 284 284 284 284 285 285 285 286 286 286 286 287 288 289 288
314 316 315 313 311 308 307 306 302 298 295 293 291 290 289 289 288 287 286 286 285 285 285 284 284 284 284 284 283 284 284 284 284 284 284 285 285 285 286 287 287 288 289
313 314 314 313 311 308 306 304 300 296 293 291 290 289 288 287 286 286 285 285 285 284 284 284 283 283 283 283 283 283 283 283 283 283 284 284 284 284 285 286 287 288 288
312 312 313 311 310 308 305 301 297 294 291 289 288 287 287 286 285 285 284 284 284 284 283 283 283 283 283 283 282 282 282 282 282 283 283 283 283 283 284 285 285 286 288
312 312 312 311 308 304 299 296 294 291 289 288 287 286 286 285 284 284 284 284 283 283 283 283 282 282 282 282 282 282 282 282 282 282 282 282 282 282 283 284 285 286 287
312 312 311 307 301 297 295 292 291 289 288 286 285 285 284 284 284 284 283 283 282 282 282 282 282 282 282 282 281 281 281 281 281 281 281 281 281 282 283 284 285 286 287
311 309 304 300 297 295 292 291 289 288 286 285 284 284 284 284 283 283 283 282 282 282 282 282 282 282 281 281 281 281 280 280 280 281 281 281 282 282 283 284 285 286 287
308 304 300 298 295 293 291 289 287 286 284 284 284 284 283 283 282 282 282 282 282 281 282 282 281 281 281 281 281 280 280 281 281 282 282 282 283 283 284 284 285 286 287
305 301 299 296 293 291 289 288 286 284 283 283 283 283 282 282 282 282 282 281 281 281 281 281 281 281 281 281 281 281 282 282 282 283 283 283 284 285 285 285 286 286 287
303 300 298 295 292 289 288 286 284 283 282 282 282 282 281 281 281 281 281 281 281 281 281 281 281 281 281 281 282 283 283 283 283 283 283 283 283 283 284 285 286 288 288
302 298 296 293 290 288 286 285 283 282 282 282 281 281 281 281 281 281 281 281 281 281 281 281 281 281 282 282 283 283 283 283 283 283 283 283 283 283 284 285 285 286 287
299 296 293 290 288 286 284 282 282 281 281 281 281 280 280 280 280 280 281 281 281 281 281 281 281 282 282 282 283 283 283 283 283 283 283 283 283 283 284 285 285 286 287
297 294 290 287 285 283 282 281 281 281 280 280 280 280 280 280 280 280 280 280 281 281 281 281 281 281 281 282 283 283 284 284 284 284 284 284 284 285 285 286 286 286 287
293 290 287 284 283 281 281 281 280 280 280 279 279 279 279 279 280 280 280 280 281 281 281 281 281 281 281 282 284 284 284 285 285 285 285 285 286 286 287 287 287 288 288
287 285 284 282 281 280 280 280 280 280 278 278 278 279 279 279 279 280 280 281 280 280 280 280 280 281 282 283 283 284 285 285 286 286 286 286 286 287 287 287 287 288 289
284 283 281 280 279 279 280 280 279 278 278 278 279 279 279 279 279 280 280 280 280 280 280 280 281 281 282 282 283 284 285 286 286 287 288 287 287 287 287 287 287 288 288
282 281 280 279 278 278 279 279 278 277 278 278 279 279 279 279 281 280 280 280 280 280 279 280 281 281 282 282 283 284 285 287 287 286 287 287 288 289 289 288 288 288 288
281 279 279 278 278 278 278 277 277 277 278 278 279 279 279 281 280 280 280 279 279 279 279 280 281 281 282 282 283 284 286 285 285 285 285 286 287 288 289 288 288 288 289
280 279 279 278 277 277 277 277 277 277 278 278 279 279 280 280 279 279 279 279 279 280 280 280 281 281 282 283 284 285 284 284 284 284 284 285 286 287 288 287 288 288 289
279 279 278 277 277 277 277 277 277 277 278 279 279 280 279 279 279 279 278 279 279 280 280 281 281 281 283 283 285 284 283 283 283 283 283 284 285 287 288 287 287 287 288
Wind_Speed
20 28 29 28 26 25 24 22 20 17 14 11 9 6 4 2 3 5 7 11 13 14 15 16 17 18 20 22 23 24 24 23 24 26 27 31 37 24 19 15 25 28 28
22 24 30 30 29 27 25 23 21 18 15 10 8 5 3 2 3 5 9 11 13 14 15 16 18 18 21 21 21 21 23 22 22 21 22 9 25 9 27 31 20 26 23
23 23 25 30 28 28 26 24 21 18 14 11 8 4 2 2 5 7 11 12 15 15 15 17 18 19 20 20 21 21 22 23 22 21 15 8 6 16 19 27 28 30 34
22 21 23 29 30 28 25 23 21 18 15 12 8 5 3 4 5 9 11 15 15 16 16 17 18 18 20 21 21 21 22 23 24 22 21 21 24 11 14 17 27 33 25
20 21 22 28 30 27 26 24 21 19 16 13 9 7 4 3 6 9 13 16 15 15 16 16 17 19 20 21 22 23 23 23 24 23 23 21 23 23 11 17 13 30 25
18 18 25 28 29 27 25 24 22 19 16 13 9 6 3 3 7 11 14 15 16 17 16 16 18 20 20 21 23 24 24 25 25 26 25 24 17 15 15 13 14 18 28
18 18 20 21 26 26 25 24 23 20 16 13 9 6 3 4 7 10 13 15 16 17 18 18 19 21 22 24 24 25 25 25 26 26 26 26 24 24 25 23 13 13 25
16 17 18 22 25 26 26 24 22 19 16 13 9 5 2 4 7 10 12 15 16 17 18 19 20 22 23 24 25 25 25 25 25 27 27 27 25 23 24 22 17 13 12
16 18 17 23 25 26 25 23 21 18 15 11 8 4 3 5 9 11 12 13 16 17 19 20 21 22 23 24 25 24 26 26 26 25 26 27 26 24 27 24 20 17 13
16 16 15 21 23 23 22 20 19 18 14 10 6 3 3 6 8 10 12 14 16 17 19 21 21 22 23 23 24 24 25 25 26 26 26 25 26 26 25 22 24 24 17
16 16 15 21 22 22 21 20 19 16 13 8 5 3 4 6 8 10 12 14 16 18 19 21 22 22 23 22 23 24 25 25 25 25 26 25 25 25 24 24 23 22 21
15 15 14 21 22 22 21 19 17 14 10 7 4 3 4 6 8 10 13 14 17 18 19 21 21 22 22 22 22 23 24 24 25 25 24 24 23 23 23 23 22 21 20
16 15 16 15 20 21 20 18 15 12 8 5 3 2 4 6 8 11 13 15 17 19 20 20 21 22 22 22 21 22 23 22 23 24 24 24 23 23 22 23 22 21 20
17 16 16 15 20 20 19 17 14 11 8 4 2 3 4 6 9 12 14 16 18 19 19 20 21 22 21 21 21 20 21 23 24 25 25 25 23 23 22 22 22 21 20
18 17 16 15 20 20 18 16 13 10 7 4 3 3 4 7 9 12 14 16 17 19 19 21 21 21 20 19 21 22 22 24 25 25 25 25 23 24 24 25 23 22 22
17 17 17 17 19 20 19 16 13 9 6 4 2 3 5 8 11 13 15 16 18 19 19 20 21 21 20 21 23 24 25 23 24 24 23 23 23 22 22 23 23 22 21
18 17 17 16 19 20 18 15 12 9 6 3 1 3 6 9 12 14 15 17 18 19 19 20 20 21 22 23 24 24 24 23 23 22 22 22 21 21 21 21 21 21 19
18 17 14 20 21 20 17 15 12 8 6 2 1 4 7 10 12 14 15 16 17 18 20 21 21 22 23 23 24 23 22 21 22 21 21 21 22 20 20 20 21 21 19
16 17 22 23 22 19 17 15 11 8 5 2 2 5 8 11 12 14 15 16 17 19 20 21 22 23 24 24 23 22 21 20 21 21 20 20 21 21 20 20 20 19 19
22 24 26 24 21 18 16 14 11 7 4 1 4 6 8 11 12 13 15 16 16 18 19 22 22 23 24 23 23 23 20 20 21 21 20 20 21 20 19 19 19 19 17
26 27 25 21 20 17 15 13 10 6 2 2 5 7 8 10 11 13 14 16 17 17 19 21 21 22 22 23 23 23 22 20 21 21 21 19 20 20 18 18 19 19 18
24 24 23 21 17 15 14 12 9 3 1 3 6 7 8 9 10 13 14 14 15 16 18 19 21 21 21 23 23 23 22 24 25 26 24 21 20 20 18 18 19 19 19
21 22 23 21 16 13 11 11 6 3 2 4 6 7 8 8 11 12 13 14 14 15 17 18 20 22 23 23 24 23 27 30 25 25 25 26 24 25 24 21 20 18 18
19 22 21 19 17 12 11 9 5 2 2 4 5 7 9 11 11 12 13 14 14 15 17 19 20 22 23 23 25 28 27 27 24 24 24 24 23 22 20 16 16 14 16
21 20 19 18 16 12 10 7 4 2 2 3 4 6 9 11 14 13 14 16 16 15 19 19 20 21 23 26 32 32 29 27 27 30 22 20 17 16 15 15 16 16 15
21 20 20 18 15 12 9 6 3 2 3 4 6 8 9 11 13 17 20 15 14 18 18 18 20 23 23 29 32 29 28 28 26 21 17 15 14 13 15 15 14 15 16
Wind_Direction
202 199 194 191 187 186 183 183 182 183 182 188 193 200 211 266 315 335 339 339 332 329 326 319 315 312 308 306 306 306 307 309 311 309 307 305 294 284 286 317 314 299 296
202 193 192 191 190 187 186 184 186 185 187 190 188 185 196 243 313 325 330 328 325 323 318 313 311 309 308 306 306 308 307 303 306 308 307 317 316 7 330 312 319 311 304
204 192 193 192 188 190 188 187 186 185 185 182 175 178 220 290 308 317 320 319 321 319 315 312 311 309 309 306 307 306 304 304 303 299 291 306 286 326 306 315 304 318 312
205 194 191 193 190 191 187 187 185 184 182 179 182 191 227 285 307 313 312 316 316 314 311 309 308 307 306 303 302 302 304 301 298 301 292 288 296 302 303 295 307 299 315
200 196 184 191 192 188 183 183 182 181 179 179 182 187 216 277 307 310 311 311 311 309 308 307 306 303 301 299 301 301 300 296 294 294 299 293 285 279 275 292 307 303 300
196 191 181 188 189 184 178 179 179 180 177 175 175 183 212 293 306 308 309 309 309 309 307 305 303 302 301 301 300 298 296 294 292 290 288 287 286 292 289 287 299 295 301
193 184 179 183 183 178 178 180 179 176 175 175 176 183 212 282 296 303 305 307 308 307 305 306 305 303 302 300 299 297 294 294 292 291 290 290 286 287 284 284 288 293 300
187 184 179 181 181 176 180 179 176 171 174 177 177 183 225 281 291 297 300 299 299 300 303 303 303 303 303 302 301 299 296 294 293 292 292 291 290 289 289 289 300 292 294
182 181 179 181 179 177 180 177 173 168 170 172 174 190 243 278 290 294 296 297 298 301 303 303 303 305 305 303 302 298 297 297 295 293 295 294 293 291 284 280 286 292 295
176 175 176 176 174 175 171 167 167 166 166 168 173 199 257 281 289 296 298 297 300 303 304 305 306 306 304 303 303 300 298 298 297 296 295 299 299 298 297 297 292 287 300
170 170 169 167 161 158 159 158 159 158 162 162 171 215 268 285 291 294 298 300 303 305 305 306 306 305 305 306 304 301 302 301 301 300 297 297 299 297 295 292 285 286 285
166 161 154 152 152 155 156 156 156 156 156 161 179 230 274 288 296 299 302 304 305 306 306 307 305 305 306 305 304 304 303 302 301 299 298 296 296 293 293 290 286 288 292
157 152 150 156 158 155 155 154 153 150 152 164 191 246 277 292 301 303 306 307 308 308 307 306 304 305 305 305 305 304 303 302 299 296 293 291 291 290 290 291 292 293 295
161 162 161 160 157 156 155 153 149 150 154 164 203 255 283 300 304 307 308 309 309 307 306 304 303 303 305 305 306 303 303 298 294 292 289 286 285 284 286 287 288 291 294
172 170 165 160 158 155 154 152 149 148 151 164 216 265 298 308 309 309 309 309 308 305 303 304 303 304 305 305 304 301 298 294 292 292 292 290 287 286 286 283 283 285 287
176 172 166 161 159 157 157 153 149 148 151 170 217 294 315 312 312 312 311 310 308 305 305 305 305 306 306 305 305 304 300 300 297 296 295 294 294 293 292 291 291 290 294
174 170 167 160 155 157 153 150 146 146 150 161 240 317 316 316 314 313 311 310 308 307 308 308 308 307 307 307 308 308 306 302 301 299 299 299 297 297 294 293 291 289 289
169 165 157 153 149 147 143 139 140 143 142 135 330 320 319 313 313 313 310 310 309 310 311 310 310 310 310 310 311 312 310 300 295 293 292 290 290 290 288 290 289 289 292
157 151 149 144 143 144 141 138 138 136 126 115 333 326 316 312 312 311 311 312 312 313 313 311 313 313 310 312 312 313 307 297 296 294 290 287 285 285 289 285 282 286 285
141 139 138 141 141 140 139 137 132 126 118 31 329 317 312 309 311 309 311 312 312 312 315 314 315 312 310 312 315 316 312 300 300 297 294 290 285 285 283 281 281 277 280
129 131 137 136 135 136 136 127 124 116 87 332 317 314 312 310 309 309 314 317 318 318 319 315 314 312 312 315 318 318 315 303 297 294 293 291 295 290 287 282 281 280 287
131 135 127 127 129 132 131 122 116 110 31 326 318 319 316 317 314 317 320 324 324 324 321 316 314 315 318 319 319 320 319 316 308 300 297 283 287 288 285 281 276 276 282
130 129 126 124 122 121 122 120 116 96 0 330 325 325 326 330 328 326 326 331 330 326 320 317 315 317 321 318 320 319 316 314 314 309 301 296 288 279 275 271 270 267 269
128 128 127 124 121 118 112 111 104 66 351 334 333 336 338 338 338 334 333 330 326 322 317 316 316 317 319 318 320 316 323 323 317 312 305 299 291 278 273 268 268 267 259
130 129 125 121 122 123 113 108 98 53 360 344 351 346 345 344 335 335 330 319 316 317 316 313 313 317 315 317 320 325 327 322 318 315 307 297 285 268 255 255 250 249 256
128 121 119 123 123 120 115 111 99 48 11 12 9 357 351 346 338 333 328 328 321 327 327 326 323 320 318 323 326 327 326 326 326 325 312 307 302 288 256 233 237 243 245